Location: Jangalapalle
(16.8036°N, 80.6370°E)
Time: 11:25:01
(UTC+00:00)

MOS 1-B Rocket - Pass Details

Date: 05 August 2024
Orbit: 891 x 1604 km, 99.0° (Epoch: 08 September)

Event Time Altitude Azimuth Distance (km) Brightness Sun altitude
Exits shadow 14:43:25 16° 176° (S) 2,331 5.7 -22.0°
Maximum altitude 14:48:25 71° 258° (WSW) 1,120 4.4 -23.1°
Drops below altitude 10° 14:55:26 10° 342° (NNW) 3,131 7.2 -24.6°
Sets 14:58:16 0° 344° (NNW) 4,201 7.9 -25.2°
